Regional Weather Roundup
Issued by NWS

Home | Current Version | Previous Version | Graphics & Text | Print | Product List | Glossary On
Versions: 1 2 3 4 5 6 7 8 9 10 11 12 13 14 15 16 17 18 19 20 21 22 23 24 25 26 27 28 29 30 31 32 33 34 35 36 37 38 39 40 41 42 43 44 45 46 47 48 49 50
000
ASUS43 KLMK 140702
RWRKY
KENTUCKY REGIONAL WEATHER ROUNDUP
NATIONAL WEATHER SERVICE LOUISVILLE KY
200 AM EST THU DEC 14 2017

NOTE "FAIR" INDICATES FEW OR NO CLOUDS BELOW 12,000 FEET
WITH NO SIGNIFICANT WEATHER AND/OR OBSTRUCTIONS TO VISIBILITY.

KYZ001>023-026-027-061>063-070>075-140800-
WESTERN AND SOUTH CENTRAL KENTUCKY

CITY           SKY/WX    TMP DP  RH WIND       PRES   REMARKS
PADUCAH        CLEAR     41  29  62 N13G24    29.85R
HENDERSON      CLOUDY    39  27  62 NW17      29.84R WCI  30
OWENSBORO      CLOUDY    39  28  64 NW18      29.82R WCI  30
HOPKINSVILLE   CLEAR     41  30  63 NW9       29.81R
BOWLING GREEN  CLOUDY    42  30  62 NW7       29.79R
GLASGOW        NOT AVBL
$$

KYZ024-025-028>034-038-045-046-053-140800-
NORTH CENTRAL KENTUCKY

CITY           SKY/WX    TMP DP  RH WIND       PRES   REMARKS
LOUISVILLE/SDF CLOUDY    40  28  62 W18G29    29.75R WCI  31
LOUISVILLE/LOU CLOUDY    39  28  64 NW21G38   29.75R WCI  29
FORT KNOX      CLOUDY    38  28  65 NW15G23   29.74R WCI  30
$$

KYZ035>037-039>044-047>052-055>060-089>105-140800-
NORTHEAST KENTUCKY

CITY           SKY/WX    TMP DP  RH WIND       PRES   REMARKS
LEXINGTON      CLOUDY    40  28  62 W20G37    29.69R WCI  30
COVINGTON      CLOUDY    35  26  69 NW22G38   29.68R WCI  23
FRANKFORT      CLOUDY    40  27  59 W14G31    29.70R WCI  32
$$

KYZ054-064>069-076>088-106>120-140800-
SOUTHEAST KENTUCKY

CITY           SKY/WX    TMP DP  RH WIND       PRES   REMARKS
JACKSON        CLOUDY    43  24  47 W9G23     29.64R
LONDON         CLEAR     43  22  43 W12       29.70R
SOMERSET       NOT AVBL
MIDDLESBORO    MOCLDY    43  23  44 W5        29.73R
MONTICELLO     NOT AVBL
$$





USA.gov is the U.S. government's official web portal to all federal, state and local government web resources and services.